Zurück zum Katalog

FENGYUN 1C DEB

AktivPO
NORAD 31491·DEBRIS·🇨🇳 China

Gestartet May 10, 1999 von Taiyuan Satellite Launch Center

Loading…

Nächste Überflüge (nächste 24 Stunden)

TLE

AktuellSource: Space-Track

Epoche: Sep 12, 2026, 00:38 UTC

1 31491U 99025BWE 26255.02675466  .00001656  00000-0  80995-3 0  9991
2 31491  99.3000 181.6299 0048115 215.7143 144.0810 14.18823820676014

Verfolge FENGYUN 1C DEB in Echtzeit mit AllMySat

Download on the App Store